Probability
0 0 0 0 0 0 0 0 0 0 0 0 0 0 0 0 0 0 0 0 0 0 0 0 0 0 0 0 0 0 0 0 0 0 0 0 0 0 0 0 0 0 0 0 0 0 0 0 0
0 0 0 0 0 0 0 0 0 0 0 0 0 0 0 0 0 0 0 0 0 0 0 0 0 0 0 0 0 0 0 0 0 0 0 0 0 0 0 0 0 0 0 0 0 0 0 0 0
0 0 0 0 0 0 0 0 0 0 0 0 0 0 0 0 0 0 0 0 0 0 0 0 0 0 0 0 0 0 0 0 0 0 0 0 0 0 0 0 0 0 0 0 0 0 0 0 0
0 0 0 0 0 0 0 0 0 0 0 0 0 0 0 0 0 0 0 0 0 0 0 0 0 0 0 0 0 0 0 0 0 0 0 0 0 0 0 0 0 0 0 0 0 0 0 0 0
0 0 0 0 0 0 0 0 0 0 0 0 0 0 0 0 0 0 0 0 0 0 0 0 0 0 0 0 0 0 0 0 0 0 0 0 0 0 0 0 0 0 0 0 0 0 0 0 0
0 0 0 0 0 0 0 0 0 0 0 0 0 0 0 0 0 0 0 0 0 0 0 0 0 0 0 0 0 0 0 0 0 0 0 0 0 0 0 0 0 0 0 0 0 0 0 0 0
0 0 0 0 0 0 0 0 0 0 0 0 0 0 0 0 0 0 0 0 0 0 0 0 0 0 0 0 0 0 0 0 0 0 0 0 0 0 0 0 0 0 0 0 0 0 0 0 0
0 0 0 0 0 0 0 0 0 0 0 0 0 0 0 0 0 0 0 0 0 0 0 0 0 0 0 0 0 0 0 0 0 0 0 0 0 0 0 0 0 0 0 0 0 0 0 0 0
0 0 0 0 0 0 0 0 0 0 0 0 0 0 0 0 0 0 0 0 0 0 0 0 0 0 0 0 0 0 0 0 0 0 0 0 0 0 0 0 0 0 0 0 0 0 0 0 0
0 0 0 0 0 0 0 0 0 0 0 0 0 0 0 0 0 0 0 0 0 0 0 0 0 0 0 0 0 0 0 0 0 0 0 0 0 0 0 0 0 0 0 0 0 0 0 0 0
0 0 0 0 0 0 0 0 0 0 0 0 0 0 0 0 0 0 0 0 0 0 0 0 0 0 0 0 0 0 0 0 0 0 0 0 0 0 0 0 0 0 0 0 0 0 0 0 0
0 0 0 0 0 0 0 0 0 0 0 0 0 0 0 0 0 0 0 0 0 0 0 0 0 0 0 0 0 0 0 0 0 0 0 0 0 0 0 0 0 0 0 0 0 0 0 0 0
0 0 0 0 0 0 0 0 0 0 0 0 0 0 0 0 0 0 0 0 0 0 0 0 0 0 0 0 0 0 0 0 0 0 0 0 0 0 0 0 0 0 0 0 0 0 0 0 0
0 0 0 0 0 0 0 0 0 0 0 0 0 0 0 0 0 0 0 0 0 0 0 0 0 0 0 0 0 0 0 0 0 0 0 0 0 0 0 0 0 0 0 0 0 0 0 0 0
0 0 0 0 0 0 0 0 0 0 0 0 0 0 0 0 0 0 0 0 0 0 0 0 0 0 0 0 0 0 0 0 0 0 0 0 0 0 0 0 0 0 0 0 0 0 0 0 0
0 0 0 0 0 0 0 0 0 0 0 0 0 0 0 0 0 0 0 0 0 0 0 0 0 0 0 0 0 0 0 0 0 0 0 0 0 0 0 0 0 0 0 0 0 0 0 0 0
0 0 0 0 0 0 0 0 0 0 0 0 0 0 0 0 0 0 0 0 0 0 0 0 0 0 0 0 0 0 0 0 0 0 0 0 0 0 0 0 0 0 0 0 0 0 0 0 0
0 0 0 0 0 0 0 0 0 0 0 0 0 0 0 0 0 0 0 0 0 0 0 0 0 0 0 0 0 0 0 0 0 0 0 0 0 0 0 0 0 0 0 0 0 0 0 0 0
0 0 0 0 0 0 0 0 0 0 0 0 0 0 0 0 0 0 0 0 0 0 0 0 0 0 0 0 0 0 0 0 0 0 0 0 0 0 0 0 0 0 0 0 0 0 0 0 0
0 0 0 0 0 0 0 0 0 0 0 0 0 0 0 0 0 0 0 0 0 0 0 0 0 0 0 0 0 0 0 0 0 0 0 0 0 0 0 0 0 0 0 0 0 0 0 0 0
0 0 0 0 0 0 0 0 0 0 0 0 0 0 0 0 0 0 0 0 0 0 0 0 0 0 0 0 0 0 0 0 0 0 0 0 0 0 0 0 0 0 0 0 0 0 0 0 0
0 0 0 0 0 0 0 0 0 0 0 0 0 0 0 0 0 0 0 0 0 0 0 0 0 0 0 0 0 0 0 0 0 0 0 0 0 0 0 0 0 0 0 0 0 0 0 0 0
0 0 0 0 0 0 0 0 0 0 0 0 0 0 0 0 0 0 0 0 0 0 0 0 0 0 0 0 0 0 0 0 0 0 0 0 0 0 0 0 0 0 0 0 0 0 0 0 0
0 0 0 0 0 0 0 0 0 0 0 0 0 0 0 0 0 0 0 0 0 0 0 0 0 0 0 0 0 0 0 0 0 0 0 0 0 0 0 0 0 0 0 0 0 0 0 0 0
0 0 0 0 0 0 0 0 0 0 0 0 0 0 0 0 0 0 0 0 0 0 0 0 0 0 0 0 0 0 0 0 0 0 0 0 0 0 0 0 0 0 0 0 0 0 0 0 0
0 0 0 0 0 0 0 0 0 0 0 0 0 0 0 0 0 0 0 0 0 0 0 0 0 0 0 0 0 0 0 0 0 0 0 0 0 0 0 0 0 0 0 0 0 0 0 0 0
0 0 0 0 0 0 0 0 0 0 0 0 0 0 0 0 0 0 0 0 0 0 0 0 0 0 0 0 0 0 0 0 0 0 0 0 0 0 0 0 0 0 0 0 0 0 0 0 0
0 0 0 0 0 0 0 0 0 0 0 0 0 0 0 0 0 0 0 0 0 0 0 0 0 0 0 0 0 0 0 0 0 0 0 0 0 0 0 0 0 0 0 0 0 0 0 0 0
0 0 0 0 0 0 0 0 0 0 0 0 0 0 0 0 0 0 0 0 0 0 0 0 0 0 0 0 0 0 0 0 0 0 0 0 0 0 0 0 0 0 0 0 0 0 0 0 0
0 0 0 0 0 0 0 0 0 0 0 0 0 0 0 0 0 0 0 0 0 0 0 0 0 0 0 0 0 0 0 0 0 0 0 0 0 0 0 0 0 0 0 0 0 0 0 0 0
Wind_Speed
1 1 1 1 2 1 2 4 4 6 5 3 4 2 2 1 1 4 6 12 13 13 12 11 10 11 11 10 10 11 13 14 15 15 15 15 14 14 14 15 15 16 17 17 17 17 17 17 17
1 1 1 1 3 3 3 5 7 6 5 6 4 2 3 3 4 6 9 12 14 13 11 11 11 11 11 10 10 11 13 14 15 15 14 14 14 14 14 14 14 15 16 16 16 16 16 16 16
1 2 1 1 3 2 2 6 7 6 6 3 4 1 1 3 5 8 9 14 14 12 11 11 10 12 11 11 10 11 13 14 15 15 14 14 13 13 13 13 14 15 15 16 15 15 15 16 16
2 1 1 3 3 1 0 5 8 10 6 2 3 4 3 3 4 7 13 15 14 12 11 12 11 12 12 11 11 11 13 14 15 14 14 13 13 13 13 13 13 14 14 15 14 15 15 15 15
1 1 3 3 2 1 1 3 10 10 8 5 4 4 5 4 4 10 15 15 14 12 11 12 10 10 11 11 11 11 12 14 14 14 13 13 12 12 12 12 12 13 14 14 14 14 14 14 14
2 2 5 5 3 2 2 6 9 8 6 5 5 5 5 4 7 13 15 14 13 12 11 11 10 9 9 9 9 10 12 13 13 13 13 12 12 11 11 11 12 12 13 13 13 13 13 13 13
4 4 4 4 4 4 5 7 8 8 6 5 5 5 6 7 8 13 14 12 12 11 10 10 11 10 8 8 8 9 9 11 12 12 12 11 10 10 10 10 11 12 12 12 12 12 12 12 12
2 3 4 4 5 4 7 7 3 5 4 4 4 4 6 10 11 13 12 12 11 10 10 10 10 9 10 9 8 8 9 10 11 11 10 10 10 9 8 8 10 11 11 12 11 11 11 11 11
4 5 5 6 6 6 9 7 4 1 4 4 3 1 4 12 15 14 12 11 10 10 9 9 9 9 9 8 9 8 9 10 11 10 10 8 7 8 6 8 9 10 10 11 10 11 11 10 9
6 6 5 3 3 6 11 7 8 6 6 5 5 4 6 13 16 17 16 15 14 13 11 9 10 9 9 7 8 7 7 8 7 7 8 5 5 5 6 9 8 9 9 10 9 9 8 5 5
6 6 4 3 3 5 10 7 7 7 6 7 8 11 12 14 16 17 17 16 15 14 12 10 10 9 9 6 6 5 4 5 6 7 7 5 5 5 5 5 6 6 6 5 6 5 3 3 3
5 3 3 4 4 7 9 9 7 8 2 2 3 9 14 18 18 19 18 16 14 14 13 12 11 9 9 7 6 5 5 5 5 6 7 6 4 4 4 3 4 4 3 4 3 2 3 3 3
5 5 4 4 5 5 7 6 4 7 4 1 2 9 14 18 18 17 16 15 14 14 14 13 12 11 10 8 6 6 6 6 6 6 7 7 5 5 5 4 4 4 3 4 3 3 4 4 4
6 7 6 4 4 4 5 3 3 3 2 4 5 9 13 16 16 15 15 16 16 15 15 13 13 12 11 9 8 7 6 6 6 6 8 8 6 5 5 5 5 4 4 4 4 4 4 4 4
6 8 6 3 3 2 4 4 7 2 2 5 6 7 10 12 14 16 17 17 16 15 14 14 13 13 13 12 10 7 7 7 6 6 8 8 7 7 6 5 5 5 4 4 4 4 4 4 4
6 8 7 3 2 1 6 9 4 1 4 6 6 7 8 11 14 15 15 15 15 15 15 14 11 13 13 12 10 8 7 8 7 7 7 9 9 8 6 5 5 5 4 4 4 4 5 5 5
7 9 10 5 2 2 7 8 2 2 2 5 6 7 8 9 12 14 14 14 14 15 15 15 15 14 14 12 10 9 8 8 7 7 7 8 10 9 8 6 5 6 5 5 5 5 5 6 6
12 9 8 9 5 5 7 9 5 4 4 6 6 6 7 9 10 10 12 13 14 14 15 15 15 15 13 10 8 7 8 7 7 7 8 10 9 11 9 7 8 7 6 6 7 7 6 5 5
11 10 8 5 2 5 9 11 10 6 7 9 9 8 8 8 5 5 8 10 12 14 15 16 16 15 12 9 9 8 8 8 7 7 9 11 11 11 11 8 9 9 8 9 9 7 7 6 4
10 10 7 3 2 2 4 10 10 8 8 8 9 9 8 6 5 4 4 7 10 13 14 15 16 15 14 11 10 7 7 7 8 7 10 12 12 11 10 11 9 10 9 10 10 9 5 5 6
6 9 9 7 4 2 3 8 7 5 3 4 6 7 6 5 5 3 2 4 6 9 11 11 14 14 14 13 9 5 5 3 5 8 8 10 11 11 11 12 11 10 10 10 12 12 11 8 8
7 4 8 8 6 3 2 6 4 3 4 4 3 3 2 1 1 1 1 0 2 3 5 8 10 11 12 12 10 11 9 9 9 7 6 8 10 11 11 11 11 10 10 10 10 11 11 9 8
6 7 7 5 4 2 3 6 6 2 6 4 2 2 2 3 3 3 3 3 3 2 2 4 6 7 8 10 10 10 9 8 6 4 5 6 6 8 9 10 9 10 9 11 10 10 12 10 10
13 9 8 4 2 6 6 8 7 5 6 4 4 3 4 4 5 6 6 6 7 7 6 5 6 4 4 6 7 8 8 6 4 3 3 3 3 4 6 7 8 8 8 9 10 10 12 11 12
8 10 5 4 5 7 3 7 10 4 3 3 3 3 4 4 6 7 8 9 9 9 9 8 9 8 5 4 3 3 3 3 3 2 2 2 2 2 4 5 6 7 7 8 8 9 10 12 12
10 12 9 9 8 4 3 9 7 1 1 2 3 4 5 7 7 8 9 9 9 10 10 10 10 10 8 7 5 4 3 1 1 1 1 1 2 3 4 5 6 7 7 7 7 7 9 9 11
11 7 3 6 3 2 7 7 9 2 3 5 7 9 9 8 8 9 9 9 10 10 10 10 11 11 9 8 7 6 5 4 3 3 2 1 2 3 4 5 6 6 7 7 8 7 9 9 10
3 11 6 6 7 6 6 7 7 8 9 10 11 11 10 9 9 9 9 9 9 9 10 10 11 11 10 9 7 6 6 5 5 4 4 3 4 4 5 5 6 6 6 6 7 8 8 10 10
8 7 7 7 5 7 6 7 5 8 11 15 14 12 11 10 9 9 8 8 9 9 10 10 10 10 9 8 8 7 7 6 5 5 5 4 4 5 5 6 6 6 7 7 7 8 9 10 11
5 10 10 9 8 6 4 5 3 5 9 12 14 12 10 10 9 9 9 8 9 9 9 9 9 9 8 7 7 7 7 6 6 6 6 5 5 5 5 6 6 6 7 7 8 9 10 11 12
Wind_Direction
57 344 267 264 233 212 151 139 152 145 143 119 136 181 210 160 342 64 104 145 137 139 140 139 131 126 119 111 109 111 114 112 108 103 100 98 96 94 92 91 92 92 90 89 87 85 84 83 82
1 287 235 294 256 215 162 162 171 144 115 123 130 160 179 118 57 101 136 146 143 140 140 136 129 127 122 116 113 113 115 115 111 107 103 102 100 96 93 92 93 95 94 92 90 89 88 87 85
95 344 347 239 245 250 150 169 164 120 127 146 138 121 36 86 118 135 140 149 145 140 137 130 131 129 126 122 117 116 119 118 114 110 107 105 103 99 94 93 92 95 95 94 93 92 91 90 89
227 147 149 244 235 274 3 153 155 144 150 142 157 139 111 56 127 137 144 152 146 141 139 135 135 133 130 126 121 119 120 119 116 113 110 108 106 101 97 95 94 95 96 96 95 94 93 93 92
206 192 210 229 230 157 189 155 168 163 162 157 178 149 123 97 119 143 153 155 150 145 142 140 136 134 133 131 128 123 122 121 119 116 113 112 110 105 101 98 97 97 98 98 97 96 95 95 95
149 193 218 219 188 154 164 163 171 171 155 156 180 154 124 119 147 153 156 159 153 147 145 142 134 133 134 134 129 125 123 123 122 119 117 116 114 110 106 103 101 100 99 99 98 98 97 97 97
188 196 221 213 173 160 153 165 181 173 173 166 178 161 136 154 156 156 159 159 156 152 151 149 148 145 136 128 125 123 122 124 124 122 118 114 111 109 102 100 104 104 102 101 100 101 100 100 99
188 182 185 197 182 153 144 159 175 179 155 118 187 186 151 156 153 157 158 161 160 160 160 157 156 155 151 145 127 122 121 121 117 114 111 108 106 102 98 108 104 106 105 104 102 102 102 101 101
186 201 203 194 185 153 156 164 143 104 134 153 194 8 80 137 151 158 162 168 169 172 171 169 165 162 158 153 143 138 125 120 123 120 119 131 135 130 126 103 101 106 107 107 106 104 103 104 103
189 206 205 187 184 156 166 174 155 169 176 183 183 157 138 153 164 172 177 179 180 182 181 180 177 170 166 157 159 158 153 151 155 149 151 149 139 129 123 103 96 99 106 109 107 106 116 129 127
186 197 174 166 172 156 162 165 166 185 198 207 197 173 161 171 178 185 188 188 188 186 184 188 186 180 176 169 169 165 162 162 165 163 161 154 148 145 148 140 133 131 133 129 125 138 143 144 141
161 140 140 144 150 159 161 157 179 212 188 72 215 168 170 181 188 192 193 191 190 190 191 191 191 188 187 182 178 175 174 173 173 173 174 170 166 167 164 166 160 161 162 154 159 155 154 159 162
149 136 111 104 129 141 143 165 191 219 210 152 154 173 186 191 196 198 197 194 194 197 195 194 194 194 192 190 187 187 186 186 181 179 184 188 181 179 176 175 178 180 175 178 177 176 174 182 183
133 124 119 114 122 140 155 162 221 211 179 191 189 193 197 201 199 198 200 201 201 202 199 195 196 198 196 196 196 195 193 191 191 191 193 195 195 189 185 184 187 190 191 190 190 189 192 198 201
126 123 116 103 128 132 162 211 222 148 169 205 207 207 208 211 207 208 207 207 206 205 203 200 199 200 201 203 203 202 198 196 199 199 199 200 203 200 197 195 195 192 188 185 191 193 205 210 212
126 152 175 150 150 125 203 235 193 125 210 223 217 215 217 217 219 219 217 216 213 208 206 204 200 203 204 205 206 206 204 203 205 204 201 204 205 206 204 205 204 190 183 188 193 196 204 213 220
167 190 197 175 174 168 215 244 161 144 216 233 226 226 229 228 228 226 223 221 218 214 210 207 204 205 206 206 207 208 208 208 208 206 206 206 207 207 207 211 205 188 189 196 197 205 212 220 224
178 179 183 193 169 184 217 240 239 222 248 256 248 241 238 239 237 230 224 222 220 218 216 214 210 209 206 205 209 210 212 211 210 207 209 206 205 207 209 212 205 192 196 202 205 210 214 228 226
169 171 177 169 128 198 228 250 258 253 254 258 255 249 246 251 253 237 228 219 216 216 215 215 213 210 205 204 206 209 213 210 211 210 209 210 208 206 209 211 207 201 207 212 209 208 214 222 207
152 166 162 121 84 211 247 262 263 256 248 252 259 259 261 262 255 245 230 213 211 213 214 215 215 212 207 209 209 212 214 215 213 208 212 213 212 209 209 212 210 207 213 215 210 205 209 214 192
157 174 166 149 130 96 288 259 240 235 235 253 255 262 270 275 279 278 240 216 208 213 215 214 214 213 211 211 210 200 204 204 208 215 217 216 216 215 213 216 216 213 213 217 214 208 210 219 210
182 172 143 141 163 171 249 261 245 231 265 245 238 230 260 301 314 341 15 121 191 216 214 215 214 213 212 210 211 210 213 221 225 225 222 218 216 220 221 223 223 221 218 223 221 215 218 224 222
129 113 113 124 136 174 202 248 259 244 248 220 157 117 82 54 58 60 55 62 64 78 140 174 188 199 205 207 211 216 224 232 235 227 231 228 222 225 228 229 230 230 227 228 226 218 218 219 228
128 104 82 79 136 235 204 221 256 217 213 166 132 102 70 71 81 80 77 77 74 75 86 105 122 135 170 190 202 212 221 227 227 223 232 238 238 239 241 242 240 239 236 234 232 226 222 223 228
162 144 143 171 206 227 148 225 248 240 209 185 166 117 83 89 95 89 82 76 72 72 77 87 95 93 100 121 143 174 202 213 228 236 244 254 258 262 265 260 258 256 252 248 243 237 233 229 230
185 181 175 185 202 190 176 232 250 267 259 194 163 135 115 105 97 87 80 78 75 73 74 80 83 83 82 87 88 81 80 87 64 39 13 311 292 290 294 281 276 274 273 267 259 252 246 240 238
163 188 127 116 99 181 218 252 280 233 191 161 151 143 128 115 104 94 85 79 76 73 70 75 81 80 76 78 80 75 71 70 65 53 34 5 338 323 311 301 291 285 282 278 273 264 259 253 246
181 145 143 163 163 212 227 231 226 197 183 163 158 150 136 125 113 101 91 85 78 75 75 74 75 76 73 72 70 66 63 59 55 49 35 14 355 342 326 316 307 301 295 289 280 276 273 269 264
145 170 173 168 190 190 222 235 211 200 179 169 163 153 144 135 123 111 100 90 85 79 74 72 70 70 67 65 67 66 60 54 51 44 27 7 353 343 331 320 311 306 301 296 287 280 280 275 273
205 183 167 178 199 206 220 249 84 209 180 168 157 149 141 133 123 114 107 98 88 80 73 69 66 63 59 59 62 59 53 46 42 34 20 5 354 344 333 321 312 307 302 297 290 286 283 279 278